RH
100 99 91 93 93 94 90 93 99 98 98 98 98 98 96 97 98 99 98 88 91 69 34 55 78 94 97 86 92 93 84 87 98 93 82 77 73 76 71 65 66 59 52 59 62 59 49 52 55 54 55 62 63 66
100 99 92 93 95 89 89 92 98 99 98 98 98 97 97 97 99 99 100 99 75 66 87 95 99 98 98 97 88 90 98 100 94 82 73 68 67 65 63 65 65 51 48 46 51 43 52 48 50 54 53 52 58 59
98 97 98 95 98 94 95 100 98 98 98 98 98 99 99 99 98 99 99 95 97 96 99 100 100 96 96 99 100 100 98 92 82 73 66 61 56 54 54 61 54 46 44 35 28 47 46 49 51 52 55 55 59 64
100 99 96 100 100 100 100 99 99 99 98 99 99 100 98 97 100 100 100 98 97 99 100 100 97 98 100 100 96 93 89 81 71 65 58 54 50 47 50 48 49 46 31 26 36 43 39 52 51 48 51 53 53 58
95 87 88 95 99 98 98 99 100 100 100 98 98 99 98 98 99 100 99 100 100 100 98 99 100 100 96 94 89 84 78 74 67 57 52 51 49 40 41 44 52 43 24 30 38 43 33 46 53 51 43 48 48 47
98 95 90 96 97 98 100 100 100 100 99 98 99 99 99 100 98 100 100 100 97 99 100 100 100 96 93 90 85 80 73 64 58 52 50 47 42 38 37 43 45 31 32 33 31 32 40 46 42 52 47 50 48 52
92 89 94 95 98 95 99 100 99 99 100 100 98 99 99 100 100 100 100 100 100 100 100 97 96 96 94 86 77 69 61 54 49 43 45 46 42 38 39 45 36 34 30 32 32 26 27 40 42 48 47 46 52 57
92 96 98 99 100 100 100 100 99 100 100 98 100 100 100 100 100 100 100 100 100 99 97 95 91 92 87 76 67 59 52 47 45 47 50 48 42 38 38 43 38 33 35 35 36 37 31 30 39 44 44 46 47 53
99 100 100 99 98 100 100 100 100 100 100 100 100 100 100 100 100 100 100 100 99 100 97 95 90 83 75 67 64 59 52 48 46 49 46 42 48 45 43 40 36 33 29 30 37 44 44 45 43 43 44 44 43 52
96 97 100 100 100 100 100 100 100 100 100 100 100 100 100 100 100 100 100 97 100 100 97 94 85 75 69 67 61 57 56 54 46 45 43 39 48 49 44 40 41 40 38 38 36 38 41 46 50 47 46 46 42 43
100 100 100 100 100 100 100 100 100 100 100 100 100 100 100 100 98 97 98 99 100 100 98 89 80 76 73 66 64 60 56 50 45 42 41 34 48 51 44 41 40 42 44 43 41 38 36 33 32 35 36 35 38 42
100 100 100 100 100 100 100 100 100 100 100 100 100 99 98 98 99 96 99 99 100 99 94 89 85 81 75 71 66 62 57 50 47 41 39 39 47 42 42 42 43 43 41 39 37 36 33 31 30 28 25 28 38 80
100 100 100 100 100 100 100 100 100 100 100 99 98 98 99 99 97 96 100 100 100 98 91 88 83 79 75 73 68 65 59 53 48 44 46 48 43 42 41 39 38 37 36 34 31 29 26 21 19 15 18 30 50 94
100 100 100 100 100 100 100 100 100 100 100 100 100 100 100 100 97 100 100 98 92 92 90 86 82 80 78 71 65 59 57 53 48 47 49 47 43 39 36 35 34 32 30 27 22 18 14 13 15 37 29 37 58 99
100 100 100 100 100 100 100 100 100 100 100 100 97 100 99 100 100 100 100 98 98 95 93 90 84 78 72 66 63 62 60 55 53 50 45 41 38 35 33 31 28 25 20 15 12 12 11 14 26 39 78 85 99 99
100 99 99 100 100 100 100 100 100 99 97 98 99 100 100 100 100 100 100 100 97 95 91 87 83 78 71 69 65 63 58 53 48 44 40 36 34 30 26 22 17 14 12 11 11 13 18 44 84 100 100 100 95 100
100 100 100 100 100 100 100 100 100 100 100 100 100 100 100 100 100 100 98 94 92 91 89 84 79 76 71 65 59 52 47 44 41 36 32 29 24 20 16 14 12 12 12 12 13 15 23 42 50 43 32 45 93 85
100 100 100 100 100 100 100 100 100 100 100 100 100 100 100 100 97 95 94 94 92 88 83 78 72 66 61 55 49 45 40 36 32 27 24 20 16 14 12 11 10 12 13 14 14 14 21 31 20 20 22 19 19 23
100 100 100 100 100 98 94 94 96 98 100 100 100 100 99 97 95 94 94 92 87 83 77 69 63 56 49 43 39 34 30 26 23 20 16 13 11 10 10 11 12 12 12 12 12 13 14 17 16 15 13 13 12 12
100 100 100 100 100 100 100 100 100 100 100 100 99 99 97 98 98 96 91 86 79 72 64 55 48 43 38 32 28 24 20 17 15 12 11 9 9 9 10 11 11 11 10 11 12 15 15 15 16 15 15 14 13 14
100 100 100 100 100 100 100 100 100 100 100 99 98 98 96 95 93 89 83 74 66 58 50 43 36 31 26 22 19 17 14 13 12 10 8 8 8 8 9 10 11 12 13 18 17 16 18 19 18 19 20 22 22 22
100 100 100 100 100 100 100 100 100 100 100 100 100 99 97 95 89 76 63 56 49 44 37 31 27 23 20 18 15 14 13 11 9 9 11 11 10 12 14 14 15 16 20 20 19 20 21 23 25 26 29 31 32 32
100 100 100 100 100 100 100 100 100 100 100 100 99 96 91 81 66 57 47 41 35 31 28 24 21 19 16 15 14 13 11 11 11 11 10 10 12 16 16 16 20 20 22 23 22 20 22 26 32 35 35 36 38 39
100 100 100 100 100 100 100 100 100 100 100 99 94 86 74 62 52 44 38 33 29 25 22 20 20 18 16 15 14 12 12 13 14 13 12 13 15 16 17 19 24 25 28 26 23 22 25 30 34 36 36 38 41 49
100 100 100 100 100 100 100 100 100 100 98 94 84 70 57 50 43 37 31 28 27 25 26 25 22 20 17 15 12 10 11 15 16 14 14 19 20 18 19 21 25 30 29 25 25 23 27 31 34 41 43 52 72 100
100 100 100 100 100 100 100 100 96 92 89 80 67 56 47 40 35 30 28 26 25 26 24 24 21 18 15 16 15 13 13 15 16 17 17 20 20 22 24 25 26 28 30 26 26 25 31 32 45 74 86 100 100 100
100 100 100 100 100 100 96 92 88 81 73 62 52 44 38 33 28 29 27 27 28 24 20 18 16 17 18 18 17 16 17 20 20 20 19 19 20 28 32 32 35 33 28 27 26 25 29 35 70 100 99 100 100 100
100 100 100 100 98 94 90 82 72 60 52 48 40 37 36 34 30 27 26 26 23 19 22 21 20 22 22 22 21 22 22 28 28 30 25 19 18 22 38 61 65 32 35 32 30 29 31 38 70 100 100 100 100 100
100 100 100 95 84 73 64 56 53 52 49 44 45 41 37 32 29 28 22 20 22 29 30 26 23 27 25 26 27 37 70 66 48 37 28 19 17 20 24 44 43 41 47 42 38 31 31 32 59 100 100 100 91 89
95 89 80 70 58 48 53 53 50 50 49 49 47 42 35 33 28 25 25 27 30 27 23 24 35 30 33 31 43 77 70 64 58 50 35 28 23 22 22 28 50 55 45 35 32 28 28 30 41 76 96 90 92 88
55 51 50 52 48 54 59 56 48 48 47 45 42 39 36 36 27 24 23 22 20 20 32 50 48 41 45 74 92 83 69 59 56 55 51 44 27 28 34 43 52 53 42 32 29 24 24 24 27 46 71 83 83 77
52 53 52 51 48 50 48 48 44 35 36 34 27 27 31 32 27 19 16 16 19 34 52 63 56 56 85 100 99 76 61 54 50 50 50 51 39 25 28 33 36 36 34 31 25 23 22 22 24 41 58 67 74 67
58 59 56 50 40 36 36 34 28 23 20 20 18 19 20 19 18 18 21 31 39 47 55 56 57 72 100 100 86 74 67 52 52 50 52 57 43 24 21 22 24 25 24 22 21 20 21 21 31 46 58 69 64 56
Wind_Speed
31 35 41 51 53 51 49 49 49 49 47 45 44 44 42 39 35 34 35 38 39 33 35 32 36 34 33 36 38 34 32 33 33 30 29 29 29 28 28 30 31 32 36 36 36 36 38 39 39 39 38 34 35 35
29 34 40 45 47 50 51 50 49 47 46 45 43 42 38 35 33 34 37 35 36 38 37 36 32 36 36 32 31 32 35 33 30 29 29 29 29 28 29 30 29 32 35 42 40 37 36 39 40 37 39 38 37 38
36 38 40 47 48 48 47 44 43 39 39 40 41 40 36 35 35 34 38 41 37 37 37 34 34 35 32 31 31 31 30 29 28 29 28 28 28 28 29 27 27 32 37 42 42 35 37 35 39 41 42 42 41 41
42 40 39 42 43 42 42 42 39 39 40 39 40 36 34 33 34 38 40 40 38 35 34 33 33 30 29 29 29 28 28 28 28 28 27 27 28 29 30 29 27 34 40 42 40 38 41 36 39 41 43 43 43 43
40 37 38 37 37 39 38 36 38 40 39 39 36 35 35 37 37 37 36 34 33 32 29 28 28 28 28 28 28 29 28 27 26 27 27 27 28 33 31 28 28 37 40 40 40 41 42 38 39 42 46 46 47 48
37 37 39 36 34 36 37 38 37 39 39 38 36 37 35 37 37 34 32 29 31 31 28 27 27 28 27 28 28 28 27 27 27 26 27 28 31 35 32 28 33 39 39 40 41 43 44 42 44 43 47 47 48 47
37 35 35 35 34 34 35 35 37 36 36 35 36 35 35 34 34 31 29 27 25 25 27 28 27 27 28 28 27 26 26 27 27 28 30 31 34 34 34 32 38 40 42 43 45 45 47 48 47 47 48 47 47 47
34 34 33 34 34 34 34 34 34 34 34 32 31 31 30 27 29 28 26 27 27 27 28 27 27 27 27 26 26 26 27 29 30 32 33 34 34 37 37 38 42 44 46 47 49 51 53 53 53 51 50 48 45 46
35 34 34 34 33 33 33 33 33 32 28 26 26 28 29 26 25 27 28 27 28 28 29 27 27 25 24 26 27 28 30 33 34 34 35 36 37 39 40 43 45 48 50 51 52 52 54 54 53 52 51 49 47 46
35 33 33 33 33 33 31 31 28 26 25 25 26 28 29 28 28 27 27 29 30 29 27 26 24 25 26 27 29 32 34 34 36 37 38 38 39 42 44 47 51 52 54 55 55 56 56 52 49 48 48 48 48 47
36 36 35 35 35 35 32 31 29 29 31 28 27 28 29 28 28 29 31 30 29 26 25 24 26 28 28 31 33 35 35 36 37 39 41 42 43 45 49 52 55 55 55 56 58 59 58 57 55 50 49 47 45 43
38 38 37 36 36 35 33 32 31 30 30 29 30 30 29 30 30 32 31 29 26 26 25 27 29 31 32 34 34 36 37 39 41 43 45 47 47 52 55 56 56 56 55 55 54 52 53 52 51 50 45 43 40 37
36 37 37 36 34 33 33 35 35 32 31 32 32 32 31 32 32 31 29 27 27 27 29 30 31 32 34 35 37 38 41 42 45 47 49 50 53 55 57 57 57 56 55 54 53 53 51 50 49 47 43 40 41 39
37 37 37 36 35 33 33 33 34 34 34 32 33 33 33 32 32 30 29 28 29 30 30 31 33 35 36 37 39 42 44 45 49 50 51 54 56 58 59 60 60 58 56 55 55 54 53 52 48 47 48 42 40 37
37 37 37 36 35 35 35 35 34 33 34 34 34 34 33 32 30 29 29 31 31 32 33 35 36 37 39 42 44 45 47 50 51 53 56 58 60 61 62 61 61 59 59 59 61 60 59 58 55 53 47 46 47 45
36 36 35 34 34 35 34 33 33 33 34 34 33 32 30 29 29 31 32 33 34 36 37 37 39 41 44 45 46 45 47 49 52 54 56 58 59 59 58 59 60 62 63 64 64 64 64 62 62 62 59 54 51 55
31 30 30 29 30 30 30 31 32 32 32 30 29 30 31 31 33 35 36 37 37 37 38 40 42 43 45 45 44 47 48 50 52 53 54 55 56 57 59 61 63 64 66 67 67 66 65 64 63 63 62 60 62 61
30 28 29 30 30 30 30 30 30 30 30 30 31 32 34 36 36 37 37 37 38 39 40 40 43 42 43 44 45 48 50 52 53 54 56 58 60 62 65 67 68 68 69 68 66 64 64 63 63 60 60 60 58 58
31 30 31 30 30 29 29 30 32 32 32 33 34 36 36 37 37 38 37 38 38 38 38 38 41 42 42 44 47 48 50 53 55 56 58 61 64 65 67 67 66 65 64 63 62 60 58 58 58 57 55 52 50 47
33 32 32 32 32 33 33 34 34 34 34 35 36 35 36 36 35 34 35 36 37 37 38 39 40 42 44 47 50 52 54 57 61 64 65 65 66 66 65 65 62 62 59 56 55 55 54 53 50 48 46 43 40 37
33 32 32 32 33 33 33 32 33 34 34 34 33 33 32 32 32 33 34 35 36 38 40 41 42 45 47 50 53 56 59 64 66 68 69 68 64 61 59 56 56 56 54 49 48 45 44 44 42 39 36 33 32 31
31 30 30 30 30 30 31 32 31 30 30 30 29 30 29 29 30 31 33 35 38 40 42 43 45 48 50 53 57 61 63 64 63 62 60 59 58 54 51 50 50 47 46 44 43 40 39 38 36 34 30 29 27 26
30 31 30 30 30 31 30 29 28 28 27 27 27 27 26 27 29 31 33 36 40 44 46 49 51 53 55 59 61 61 62 63 62 62 59 57 55 52 49 48 45 44 43 40 39 37 36 34 32 29 27 25 24 24
29 29 28 29 29 28 28 27 26 25 25 24 25 26 28 30 33 34 35 38 45 49 52 55 56 58 61 62 61 60 60 62 61 59 57 55 51 47 45 44 43 41 41 38 35 33 31 30 28 25 23 21 20 19
29 29 28 27 27 27 27 27 26 25 25 27 29 31 34 37 38 39 37 41 48 52 54 55 58 61 63 63 61 60 57 58 57 55 51 51 51 49 46 43 39 39 40 38 34 31 29 27 25 23 20 18 16 15
27 27 27 27 27 27 27 25 25 27 29 32 34 37 40 42 42 42 41 47 53 54 57 60 61 62 61 60 60 56 54 55 55 53 48 48 48 49 46 43 42 37 37 36 33 31 27 25 22 19 17 15 16 16
26 26 26 27 26 25 25 26 28 30 34 38 40 42 45 46 47 45 47 51 55 58 61 60 62 60 58 55 55 54 52 50 49 50 49 47 45 44 43 40 40 37 34 30 29 28 25 23 20 19 15 13 16 18
24 25 26 26 25 25 26 29 33 37 39 42 45 46 47 49 49 50 51 52 56 59 60 60 62 57 55 53 52 49 47 45 45 45 45 43 39 36 34 34 34 32 27 24 23 22 23 23 22 20 20 19 19 20
22 24 25 26 27 29 32 36 37 40 44 46 45 46 48 51 52 51 55 58 60 59 59 61 57 55 53 49 44 36 33 37 41 39 39 35 29 27 29 31 28 25 23 23 21 20 20 22 23 22 22 23 23 24
24 27 28 31 33 36 37 40 39 41 43 44 46 48 52 52 52 56 60 61 58 57 61 60 53 48 42 37 27 21 30 36 38 38 35 31 26 23 22 21 22 24 22 21 20 18 19 20 23 24 24 23 23 25
30 32 33 35 33 33 36 39 41 43 45 48 51 56 57 60 59 58 57 57 58 58 52 39 37 35 27 24 24 24 27 32 35 37 37 32 27 22 20 21 21 21 20 21 20 18 17 19 20 21 22 21 21 21
32 32 34 36 37 39 41 44 47 47 51 53 53 55 56 57 55 49 49 50 41 29 23 25 28 24 21 23 26 28 30 32 32 31 32 31 27 23 19 18 18 19 18 18 17 16 16 18 18 17 17 16 16 18
32 33 35 39 42 48 48 46 40 34 34 40 40 41 42 44 44 43 38 32 25 22 22 24 21 19 20 23 25 29 31 33 33 32 30 27 25 22 18 17 16 16 16 15 15 15 17 16 15 14 13 14 16 16
Wind_Direction
201 207 207 208 211 214 216 220 221 223 225 226 229 231 231 231 234 236 231 225 226 223 221 228 240 243 243 249 261 260 264 274 280 280 281 284 285 289 290 293 298 301 303 302 301 305 311 309 309 315 315 315 310 307
200 200 202 207 210 214 217 219 221 223 224 226 229 228 229 228 232 235 229 227 216 222 226 231 236 245 255 258 259 263 269 272 276 278 280 283 286 289 289 293 298 301 300 298 301 309 314 315 314 313 309 307 306 303
197 195 200 205 207 210 212 215 216 216 220 222 222 225 223 226 228 228 219 220 228 223 229 235 242 251 252 261 266 267 267 270 274 275 279 283 285 285 290 296 303 300 297 297 303 315 309 311 310 310 309 309 307 304
193 195 199 198 201 204 205 208 211 216 221 222 223 221 224 226 224 221 222 221 226 232 237 241 244 258 261 263 265 264 267 272 274 276 279 283 285 288 292 301 305 295 295 300 312 313 308 313 308 306 304 305 303 300
197 202 200 194 198 203 206 210 213 216 218 219 219 219 221 221 221 224 224 226 230 231 238 246 254 256 256 258 261 264 269 270 272 276 281 284 288 289 296 302 300 292 296 308 311 306 306 311 305 303 304 305 304 305
198 198 198 198 201 204 207 209 213 215 216 217 216 219 222 220 224 226 226 233 239 243 247 250 252 255 256 258 261 265 268 270 274 280 283 287 288 290 297 300 292 293 304 304 303 305 307 305 304 303 304 303 303 304
197 198 200 202 204 207 209 212 214 213 212 215 219 222 222 226 221 220 227 236 240 243 244 246 249 254 255 258 262 266 269 273 279 283 287 288 288 292 295 298 294 299 300 302 303 305 306 305 305 304 302 302 301 299
201 200 203 203 205 206 205 208 210 212 214 217 221 227 226 222 223 232 238 241 241 245 246 250 253 252 253 260 267 270 273 276 280 283 286 287 289 291 297 298 297 299 301 302 303 303 304 304 304 304 303 301 298 295
198 198 199 201 202 204 206 207 210 212 215 216 227 219 219 222 226 232 234 238 241 242 247 250 252 253 259 263 266 269 273 277 280 285 287 290 292 293 296 297 298 297 298 298 300 302 302 301 302 302 300 299 298 294
201 200 199 197 196 197 199 202 204 210 212 209 211 213 219 226 229 232 235 237 240 245 247 248 253 258 261 264 267 271 275 280 284 286 289 291 292 294 295 295 295 295 296 298 299 300 299 300 300 300 298 297 296 292
201 200 196 194 195 196 197 200 204 208 210 212 216 221 224 227 230 232 235 238 241 241 243 249 254 257 261 265 269 273 278 281 285 287 288 290 294 297 295 295 295 296 298 300 300 301 303 303 304 303 300 298 295 293
197 199 198 199 199 201 202 204 209 211 213 216 219 220 223 227 230 235 237 238 239 243 249 252 256 261 266 270 273 276 280 283 287 287 288 292 296 295 296 297 297 298 300 301 302 302 301 301 301 299 298 299 297 292
194 194 196 196 198 200 200 204 209 210 213 216 218 220 224 229 233 236 237 239 246 251 253 258 263 266 268 270 273 277 280 283 287 289 291 293 293 294 296 297 298 299 300 301 300 301 301 301 301 301 300 295 291 288
191 191 192 194 196 198 202 204 205 209 213 218 222 224 226 231 235 237 242 249 253 258 262 265 267 269 274 278 280 282 285 288 289 291 292 292 293 295 297 298 299 300 300 301 301 302 302 302 302 301 300 295 288 277
196 197 198 199 199 202 206 209 211 215 219 221 224 230 232 234 239 244 250 255 260 264 266 268 271 276 280 283 286 289 290 289 291 291 293 296 298 299 299 300 301 303 303 303 302 301 300 299 299 300 300 295 287 280
197 201 201 203 205 209 213 216 219 222 225 228 230 235 238 241 247 252 256 260 263 266 270 275 279 282 283 285 285 287 289 290 292 294 296 297 298 299 300 301 302 302 301 299 297 295 294 295 295 294 293 289 280 271
199 205 210 215 218 219 221 226 228 228 231 234 238 241 246 250 254 256 258 263 268 272 274 277 280 281 283 284 287 288 289 290 293 294 297 297 297 298 298 299 299 297 295 294 293 292 292 291 290 290 288 284 276 277
200 207 210 214 218 222 224 225 229 233 237 241 245 249 252 254 257 262 265 268 272 274 276 277 278 282 285 287 289 291 292 295 298 298 298 298 300 300 299 297 295 294 294 294 294 293 291 289 291 291 290 291 290 290
207 211 215 218 223 227 233 237 239 241 244 247 248 250 252 256 258 261 265 268 270 273 276 281 284 286 288 289 292 293 293 294 294 294 296 298 298 298 296 296 296 296 295 295 295 293 292 292 295 297 298 299 297 296
213 214 217 220 224 228 231 234 239 243 246 247 249 252 255 258 262 265 267 271 275 280 282 285 287 290 293 294 295 295 297 298 298 299 300 301 299 298 297 297 297 295 296 297 298 299 299 300 302 304 304 304 302 299
213 214 217 220 222 227 231 234 237 240 244 247 251 253 256 260 264 269 274 279 282 284 286 289 292 294 295 296 297 299 301 303 304 304 303 300 299 299 297 296 296 298 300 301 302 305 305 305 306 304 305 303 299 296
210 215 217 220 222 227 230 234 236 239 240 244 248 253 260 266 271 277 281 283 285 287 289 292 293 293 295 298 301 302 303 303 302 300 301 301 301 300 301 300 299 300 301 302 302 302 302 303 304 303 303 300 299 297
208 211 214 219 224 228 229 232 234 237 241 247 254 260 266 272 276 281 284 288 291 292 292 293 294 297 301 302 304 306 305 304 304 304 304 302 301 302 300 298 298 298 298 299 300 301 300 301 302 302 302 300 298 299
211 215 220 223 225 225 227 226 233 241 247 254 260 267 272 275 278 283 290 298 296 295 297 297 300 301 302 304 306 307 305 304 304 304 304 303 302 300 297 296 297 298 296 298 298 297 299 302 302 300 297 295 296 297
216 217 222 222 224 225 230 237 243 248 255 262 267 273 279 281 286 291 300 297 293 296 297 299 300 303 305 307 307 305 305 303 302 302 302 299 297 297 296 297 298 297 294 293 294 294 299 301 297 296 295 293 292 295
218 222 222 225 228 233 239 247 254 260 266 273 278 281 284 288 293 300 301 295 295 297 299 302 306 307 307 307 307 307 305 303 302 302 302 297 296 295 295 294 293 292 289 288 288 290 295 292 289 290 289 282 286 295
218 220 226 233 240 246 253 259 266 272 276 279 283 287 290 296 300 302 299 298 298 300 301 304 303 305 307 309 307 306 306 304 303 302 303 301 298 293 292 291 289 288 287 284 281 284 286 281 276 277 278 286 293 298
222 233 240 246 253 259 267 272 276 278 281 284 288 291 296 298 299 299 298 298 300 299 298 299 301 304 306 308 306 305 304 305 307 311 309 307 300 290 283 281 282 286 290 280 278 277 277 275 267 267 271 276 283 294
241 246 252 257 264 270 276 277 279 282 285 288 291 293 293 294 297 298 298 300 301 299 299 300 302 302 304 304 302 307 309 310 312 316 319 317 307 290 275 274 280 284 280 272 273 271 272 271 264 260 266 279 286 294
248 256 263 270 274 278 276 278 282 284 286 288 290 289 289 291 295 300 302 300 297 299 298 299 301 300 299 298 297 298 313 314 317 323 326 327 318 304 288 276 272 276 275 272 275 272 272 273 269 264 267 278 288 299
264 268 270 271 273 274 275 279 280 282 284 286 288 289 292 293 293 297 297 296 297 296 297 294 291 294 294 288 294 304 311 314 315 318 323 326 324 311 298 290 286 282 275 273 276 277 276 278 278 270 268 276 287 298
270 271 272 273 272 275 277 278 279 287 293 293 291 288 288 288 291 294 293 295 299 296 292 290 293 291 280 287 297 307 314 315 314 314 317 319 318 314 304 293 286 282 279 278 277 277 279 281 277 270 271 277 289 305
270 274 279 282 282 282 283 285 285 281 289 304 296 292 292 294 295 296 299 299 294 289 285 286 286 275 279 289 300 307 315 317 318 317 316 315 314 310 308 299 289 282 278 275 272 275 278 274 268 267 268 280 297 304